Regional Weather Roundup
Issued by NWS Sioux Falls, SD

Home | Current Version | Previous Version | Text Only | Print | Product List | Glossary On
Versions: 1 2 3 4 5 6 7 8 9 10 11 12 13 14 15 16 17 18 19 20 21 22 23 24 25 26 27 28 29 30 31 32 33 34 35 36 37 38 39 40 41 42 43 44 45 46 47 48 49 50
000
ASUS43 KFSD 240002
RWRFSD

WEATHER ROUNDUP FOR SE SOUTH DAKOTA/SW MINNESOTA/NW IOWA
NATIONAL WEATHER SERVICE SIOUX FALLS SD
700 PM CDT WED AUG 23 2017

NOTE: "FAIR" INDICATES FEW OR NO CLOUDS BELOW 12,000 FEET WITH NO
SIGNIFICANT WEATHER AND OR OBSTRUCTIONS TO VISIBILITY.


SDZ038>040-050-052>070-240100-
SOUTHEAST SOUTH DAKOTA

CITY           SKY/WX    TMP DP  RH WIND       PRES   REMARKS
BROOKINGS      PTSUNNY   72  59  63 SE12      30.00F
CHAMBERLAIN    SUNNY     86  65  49 SE8       29.88F
6HR MIN TEMP:  81; 6HR MAX TEMP:  88;

HURON          SUNNY     78  61  55 SE13      29.93F
6HR MIN TEMP:  78; 6HR MAX TEMP:  81;

MADISON        RAIN      68  64  88 SE8       30.01S
MITCHELL       SUNNY     80  62  54 SE14      29.94F
6HR MIN TEMP:  78; 6HR MAX TEMP:  82;

SIOUX FALLS    CLOUDY    72  64  76 E9        30.00S
6HR MIN TEMP:  72; 6HR MAX TEMP:  81; 6HR PCP:  0.01;

WINNER         FAIR      86  65  49 S10       29.89F
YANKTON        SUNNY     77  59  53 S13       29.97F
$$

MNZ071-072-080-081-089-090-097-098-240100-
SOUTHWEST MINNESOTA

CITY           SKY/WX    TMP DP  RH WIND       PRES   REMARKS
FAIRMONT       MOSUNNY   71  57  61 SE3       30.04F
JACKSON        SUNNY     72  52  49 CALM      30.04F
LUVERNE        PTSUNNY   72  57  60 SE5       30.02S
MARSHALL       PTSUNNY   73  56  54 SE10      30.01F
6HR MIN TEMP:  73; 6HR MAX TEMP:  76;

MONTEVIDEO     SUNNY     73  55  53 S5        30.01F
PIPESTONE      MOSUNNY   73  61  64 S5        30.02S
REDWOOD FALLS  SUNNY     72  56  57 SE3       30.02F
TRACY          MOSUNNY   74  59  59 S3        30.02F
WINDOM         SUNNY     73  54  49 CALM      30.03F
WORTHINGTON    MOSUNNY   71  58  63 S5        30.03F
$$

IAZ001>003-012>014-020>022-031-032-NEZ013-014-SDZ071-240100-
NORTHWEST IOWA

CITY           SKY/WX    TMP DP  RH WIND       PRES   REMARKS
CHEROKEE       SUNNY     74  58  57 S7        30.03F
DENISON        SUNNY     73  59  60 S5        30.06S
ESTHERVILLE    SUNNY     71  58  63 SE3       30.03F
ORANGE CITY    MOSUNNY   75  63  64 S7        30.02F
SHELDON        MOSUNNY   72  61  68 SE5       30.01F
SIOUX CITY     MOSUNNY   76  59  55 S12       30.01F
6HR MIN TEMP:  75; 6HR MAX TEMP:  78;

SPENCER        SUNNY     74  57  55 S7        30.03F
6HR MIN TEMP:  74; 6HR MAX TEMP:  78;

STORM LAKE     SUNNY     72  61  68 S5        30.04F
$$

ABBREVIATIONS USED IN REMARKS
   TC - TEMPERATURE IN CELSIUS
  WCI - WIND CHILL INDEX
   HX - HEAT INDEX
  VSB - VISIBILITY




USA.gov is the U.S. government's official web portal to all federal, state and local government web resources and services.